Time,TemperatureF,DewpointF,PressureIn,WindDirection,WindDirectionDegrees,WindSpeedMPH,WindSpeedGustMPH,Humidity,HourlyPrecipIn,Conditions,Clouds,dailyrainin,SoftwareType,DateUTC
2013-06-10 00:07:00,60.7,56.5,29.88,South,183,0.0,0.0,86,0.00,,,0.00,Wunderground v.1.15,2013-06-10 07:07:00,
2013-06-10 00:12:00,60.8,56.6,29.88,South,183,0.0,0.0,86,0.00,,,0.00,Wunderground v.1.15,2013-06-10 07:12:00,
2013-06-10 00:17:00,60.8,56.6,29.88,South,183,0.0,0.0,86,0.00,,,0.00,Wunderground v.1.15,2013-06-10 07:17:00,
2013-06-10 00:27:00,61.1,56.9,29.88,South,183,0.0,0.0,86,0.00,,,0.00,Wunderground v.1.15,2013-06-10 07:27:00,
2013-06-10 00:32:00,61.2,57.0,29.88,South,183,0.0,1.0,86,0.00,,,0.00,Wunderground v.1.15,2013-06-10 07:32:00,
2013-06-10 00:42:00,61.4,56.8,29.88,SSE,165,2.0,2.0,85,0.00,,,0.00,Wunderground v.1.15,2013-06-10 07:42:00,
2013-06-10 00:52:00,61.6,57.0,29.88,South,184,2.0,2.0,85,0.00,,,0.00,Wunderground v.1.15,2013-06-10 07:52:00,
2013-06-10 01:02:00,61.7,57.1,29.87,South,184,2.0,2.0,85,0.00,,,0.00,Wunderground v.1.15,2013-06-10 08:02:00,
2013-06-10 01:12:00,61.8,57.2,29.87,South,184,2.0,2.0,85,0.00,,,0.00,Wunderground v.1.15,2013-06-10 08:12:00,
2013-06-10 01:17:00,61.8,57.2,29.87,South,184,2.0,2.0,85,0.00,,,0.00,Wunderground v.1.15,2013-06-10 08:17:00,
2013-06-10 01:22:00,61.9,57.3,29.87,South,184,2.0,2.0,85,0.00,,,0.00,Wunderground v.1.15,2013-06-10 08:22:00,
2013-06-10 01:32:00,61.9,57.3,29.87,South,184,2.0,2.0,85,0.00,,,0.00,Wunderground v.1.15,2013-06-10 08:32:00,
2013-06-10 01:42:00,62.0,57.4,29.87,South,184,2.0,2.0,85,0.00,,,0.00,Wunderground v.1.15,2013-06-10 08:42:00,
2013-06-10 01:47:00,62.2,57.3,29.88,South,184,2.0,2.0,84,0.00,,,0.00,Wunderground v.1.15,2013-06-10 08:47:00,
2013-06-10 01:57:00,62.2,57.3,29.88,South,184,2.0,3.0,84,0.00,,,0.00,Wunderground v.1.15,2013-06-10 08:57:00,
2013-06-10 02:02:00,62.1,57.2,29.88,South,184,2.0,2.0,84,0.00,,,0.00,Wunderground v.1.15,2013-06-10 09:02:00,
2013-06-10 02:12:00,62.1,57.5,29.87,South,184,1.0,1.0,85,0.00,,,0.00,Wunderground v.1.15,2013-06-10 09:12:00,
2013-06-10 02:22:00,62.2,57.3,29.88,South,184,1.0,2.0,84,0.00,,,0.00,Wunderground v.1.15,2013-06-10 09:22:00,
2013-06-10 02:27:00,62.2,57.3,29.88,South,184,2.0,2.0,84,0.00,,,0.00,Wunderground v.1.15,2013-06-10 09:27:00,
2013-06-10 02:37:00,62.2,57.3,29.87,South,184,1.0,2.0,84,0.00,,,0.00,Wunderground v.1.15,2013-06-10 09:37:00,
2013-06-10 02:42:00,62.2,57.3,29.88,South,184,1.0,1.0,84,0.00,,,0.00,Wunderground v.1.15,2013-06-10 09:42:00,
2013-06-10 02:52:00,62.2,57.3,29.88,South,184,1.0,1.0,84,0.00,,,0.00,Wunderground v.1.15,2013-06-10 09:52:00,
2013-06-10 02:57:00,62.2,57.3,29.88,South,184,1.0,2.0,84,0.00,,,0.00,Wunderground v.1.15,2013-06-10 09:57:00,
2013-06-10 03:07:00,62.3,57.4,29.88,South,184,1.0,2.0,84,0.00,,,0.00,Wunderground v.1.15,2013-06-10 10:07:00,
2013-06-10 03:17:00,62.3,57.1,29.88,SSW,197,2.0,2.0,83,0.00,,,0.00,Wunderground v.1.15,2013-06-10 10:17:00,
2013-06-10 03:22:00,62.3,57.1,29.88,SSW,197,2.0,2.0,83,0.00,,,0.00,Wunderground v.1.15,2013-06-10 10:22:00,
2013-06-10 03:27:00,62.3,57.1,29.88,SSW,197,0.0,2.0,83,0.00,,,0.00,Wunderground v.1.15,2013-06-10 10:27:00,
2013-06-10 03:37:00,62.4,57.2,29.88,SSW,197,1.0,1.0,83,0.00,,,0.00,Wunderground v.1.15,2013-06-10 10:37:00,
2013-06-10 03:42:00,62.5,57.3,29.88,SSW,197,1.0,1.0,83,0.00,,,0.00,Wunderground v.1.15,2013-06-10 10:42:00,
2013-06-10 03:52:00,62.5,57.3,29.88,East,96,1.0,2.0,83,0.00,,,0.00,Wunderground v.1.15,2013-06-10 10:52:00,
2013-06-10 03:57:00,62.5,57.3,29.88,South,187,1.0,2.0,83,0.00,,,0.00,Wunderground v.1.15,2013-06-10 10:57:00,
2013-06-10 04:07:00,62.5,57.3,29.88,SE,130,1.0,3.0,83,0.00,,,0.00,Wunderground v.1.15,2013-06-10 11:07:00,
2013-06-10 04:17:00,62.4,57.2,29.88,SE,130,1.0,1.0,83,0.00,,,0.00,Wunderground v.1.15,2013-06-10 11:17:00,
2013-06-10 04:22:00,62.4,57.2,29.88,SE,130,1.0,2.0,83,0.00,,,0.00,Wunderground v.1.15,2013-06-10 11:22:00,
2013-06-10 04:27:00,62.3,57.1,29.88,SE,130,1.0,2.0,83,0.00,,,0.00,Wunderground v.1.15,2013-06-10 11:27:00,
2013-06-10 04:37:00,62.3,57.4,29.88,SE,130,2.0,2.0,84,0.00,,,0.00,Wunderground v.1.15,2013-06-10 11:37:00,
2013-06-10 04:42:00,62.3,57.4,29.88,SE,130,2.0,2.0,84,0.00,,,0.00,Wunderground v.1.15,2013-06-10 11:42:00,
2013-06-10 04:52:00,62.3,57.4,29.88,SE,130,1.0,1.0,84,0.00,,,0.00,Wunderground v.1.15,2013-06-10 11:52:00,
2013-06-10 04:57:00,62.3,57.4,29.88,SE,130,1.0,1.0,84,0.00,,,0.00,Wunderground v.1.15,2013-06-10 11:57:00,
2013-06-10 05:07:00,62.3,57.1,29.88,SE,130,1.0,1.0,83,0.00,,,0.00,Wunderground v.1.15,2013-06-10 12:07:00,
2013-06-10 05:12:00,62.3,57.4,29.88,SE,130,1.0,1.0,84,0.00,,,0.00,Wunderground v.1.15,2013-06-10 12:12:00,
2013-06-10 05:17:00,62.3,57.4,29.88,SE,130,1.0,1.0,84,0.00,,,0.00,Wunderground v.1.15,2013-06-10 12:17:00,
2013-06-10 05:22:00,62.3,57.4,29.89,SE,130,1.0,1.0,84,0.00,,,0.00,Wunderground v.1.15,2013-06-10 12:22:00,
2013-06-10 05:27:00,62.2,57.3,29.89,SE,130,1.0,1.0,84,0.00,,,0.00,Wunderground v.1.15,2013-06-10 12:27:00,
2013-06-10 05:37:00,62.3,57.4,29.89,SE,130,1.0,1.0,84,0.00,,,0.00,Wunderground v.1.15,2013-06-10 12:37:00,
2013-06-10 05:42:00,62.3,57.4,29.89,SE,130,1.0,1.0,84,0.00,,,0.00,Wunderground v.1.15,2013-06-10 12:42:00,
2013-06-10 05:52:00,62.2,57.3,29.89,SE,130,1.0,2.0,84,0.00,,,0.00,Wunderground v.1.15,2013-06-10 12:52:00,
2013-06-10 05:57:00,62.2,57.3,29.89,SE,130,1.0,2.0,84,0.00,,,0.00,Wunderground v.1.15,2013-06-10 12:57:00,
2013-06-10 06:07:00,62.3,57.1,29.90,SE,130,1.0,2.0,83,0.00,,,0.00,Wunderground v.1.15,2013-06-10 13:07:00,
2013-06-10 06:12:00,62.3,57.1,29.90,SE,130,1.0,1.0,83,0.00,,,0.00,Wunderground v.1.15,2013-06-10 13:12:00,
2013-06-10 06:22:00,62.5,57.3,29.90,SE,130,1.0,3.0,83,0.00,,,0.00,Wunderground v.1.15,2013-06-10 13:22:00,
2013-06-10 06:27:00,62.5,57.3,29.90,SE,130,1.0,3.0,83,0.00,,,0.00,Wunderground v.1.15,2013-06-10 13:27:00,
2013-06-10 06:37:00,62.7,57.5,29.91,SE,130,1.0,1.0,83,0.00,,,0.00,Wunderground v.1.15,2013-06-10 13:37:00,
2013-06-10 06:42:00,62.8,57.2,29.91,SE,130,1.0,1.0,82,0.00,,,0.00,Wunderground v.1.15,2013-06-10 13:42:00,
2013-06-10 06:47:00,62.9,57.3,29.91,SE,131,1.0,2.0,82,0.00,,,0.00,Wunderground v.1.15,2013-06-10 13:47:00,
2013-06-10 06:57:00,63.0,57.4,29.91,SSE,168,2.0,3.0,82,0.00,,,0.00,Wunderground v.1.15,2013-06-10 13:57:00,
2013-06-10 07:02:00,63.1,57.5,29.91,South,184,2.0,2.0,82,0.00,,,0.00,Wunderground v.1.15,2013-06-10 14:02:00,
2013-06-10 07:07:00,63.2,57.3,29.91,South,185,2.0,2.0,81,0.00,,,0.00,Wunderground v.1.15,2013-06-10 14:07:00,
2013-06-10 07:12:00,63.2,57.3,29.91,South,186,3.0,3.0,81,0.00,,,0.00,Wunderground v.1.15,2013-06-10 14:12:00,
2013-06-10 07:22:00,63.5,57.2,29.92,SSE,154,2.0,3.0,80,0.00,,,0.00,Wunderground v.1.15,2013-06-10 14:22:00,
2013-06-10 07:32:00,63.7,57.4,29.92,South,179,2.0,2.0,80,0.00,,,0.00,Wunderground v.1.15,2013-06-10 14:32:00,
2013-06-10 07:37:00,63.9,57.6,29.92,South,171,2.0,4.0,80,0.00,,,0.00,Wunderground v.1.15,2013-06-10 14:37:00,
2013-06-10 07:47:00,63.9,57.3,29.92,South,172,2.0,3.0,79,0.00,,,0.00,Wunderground v.1.15,2013-06-10 14:47:00,
2013-06-10 07:52:00,64.1,57.1,29.93,SE,125,1.0,2.0,78,0.00,,,0.00,Wunderground v.1.15,2013-06-10 14:52:00,
2013-06-10 08:02:00,64.4,57.4,29.92,SE,125,2.0,2.0,78,0.00,,,0.00,Wunderground v.1.15,2013-06-10 15:02:00,
2013-06-10 08:12:00,65.3,57.5,29.92,SE,126,1.0,1.0,76,0.00,,,0.00,Wunderground v.1.15,2013-06-10 15:12:00,
2013-06-10 08:22:00,65.8,57.7,29.93,SSE,163,2.0,2.0,75,0.00,,,0.00,Wunderground v.1.15,2013-06-10 15:22:00,
2013-06-10 08:32:00,66.0,57.5,29.93,ESE,103,2.0,2.0,74,0.00,,,0.00,Wunderground v.1.15,2013-06-10 15:32:00,
2013-06-10 08:37:00,66.1,57.6,29.93,East,98,2.0,2.0,74,0.00,,,0.00,Wunderground v.1.15,2013-06-10 15:37:00,
2013-06-10 08:42:00,66.2,57.3,29.93,ESE,115,1.0,1.0,73,0.00,,,0.00,Wunderground v.1.15,2013-06-10 15:42:00,
2013-06-10 08:52:00,66.8,57.9,29.93,East,100,1.0,1.0,73,0.00,,,0.00,Wunderground v.1.15,2013-06-10 15:52:00,
2013-06-10 09:02:00,67.5,58.5,29.93,East,101,1.0,5.0,73,0.00,,,0.00,Wunderground v.1.15,2013-06-10 16:02:00,
2013-06-10 09:07:00,67.9,57.8,29.93,NE,40,2.0,5.0,70,0.00,,,0.00,Wunderground v.1.15,2013-06-10 16:07:00,
2013-06-10 09:12:00,68.0,57.4,29.93,East,97,3.0,3.0,69,0.00,,,0.00,Wunderground v.1.15,2013-06-10 16:12:00,
2013-06-10 09:17:00,68.5,57.5,29.93,ESE,113,3.0,3.0,68,0.00,,,0.00,Wunderground v.1.15,2013-06-10 16:17:00,
2013-06-10 09:22:00,68.8,56.6,29.93,East,100,2.0,2.0,65,0.00,,,0.00,Wunderground v.1.15,2013-06-10 16:22:00,
2013-06-10 09:27:00,68.7,56.9,29.93,NE,35,2.0,2.0,66,0.00,,,0.00,Wunderground v.1.15,2013-06-10 16:27:00,
2013-06-10 09:32:00,69.4,56.3,29.93,East,82,2.0,3.0,63,0.00,,,0.00,Wunderground v.1.15,2013-06-10 16:32:00,
2013-06-10 09:42:00,68.7,55.6,29.93,ESE,111,2.0,2.0,63,0.00,,,0.00,Wunderground v.1.15,2013-06-10 16:42:00,
2013-06-10 09:52:00,69.2,56.9,29.93,ESE,111,2.0,2.0,65,0.00,,,0.00,Wunderground v.1.15,2013-06-10 16:52:00,
2013-06-10 09:57:00,70.0,56.8,29.93,East,87,2.0,2.0,63,0.00,,,0.00,Wunderground v.1.15,2013-06-10 16:57:00,
2013-06-10 10:07:00,69.5,56.8,29.93,NE,40,3.0,4.0,64,0.00,,,0.00,Wunderground v.1.15,2013-06-10 17:07:00,
2013-06-10 10:12:00,70.1,56.9,29.93,SSE,153,2.0,5.0,63,0.00,,,0.00,Wunderground v.1.15,2013-06-10 17:12:00,
2013-06-10 10:22:00,71.4,57.2,29.93,SE,129,2.0,2.0,61,0.00,,,0.00,Wunderground v.1.15,2013-06-10 17:22:00,
2013-06-10 10:27:00,71.9,56.8,29.93,ESE,114,2.0,2.0,59,0.00,,,0.00,Wunderground v.1.15,2013-06-10 17:27:00,
2013-06-10 10:32:00,72.0,56.9,29.93,South,181,2.0,2.0,59,0.00,,,0.00,Wunderground v.1.15,2013-06-10 17:32:00,
2013-06-10 10:37:00,71.9,57.3,29.92,NNW,333,2.0,2.0,60,0.00,,,0.00,Wunderground v.1.15,2013-06-10 17:37:00,
2013-06-10 10:42:00,72.5,57.8,29.93,West,278,1.0,1.0,60,0.00,,,0.00,Wunderground v.1.15,2013-06-10 17:42:00,
2013-06-10 10:47:00,72.3,57.6,29.93,SW,219,2.0,3.0,60,0.00,,,0.00,Wunderground v.1.15,2013-06-10 17:47:00,
2013-06-10 10:52:00,71.9,57.3,29.93,WSW,238,3.0,3.0,60,0.00,,,0.00,Wunderground v.1.15,2013-06-10 17:52:00,
2013-06-10 10:57:00,71.4,56.8,29.93,SSE,166,4.0,4.0,60,0.00,,,0.00,Wunderground v.1.15,2013-06-10 17:57:00,
2013-06-10 11:02:00,71.4,57.2,29.93,West,271,3.0,3.0,61,0.00,,,0.00,Wunderground v.1.15,2013-06-10 18:02:00,
2013-06-10 11:07:00,71.7,57.1,29.93,SW,225,3.0,3.0,60,0.00,,,0.00,Wunderground v.1.15,2013-06-10 18:07:00,
2013-06-10 11:17:00,72.3,57.2,29.92,South,185,3.0,4.0,59,0.00,,,0.00,Wunderground v.1.15,2013-06-10 18:17:00,
2013-06-10 11:22:00,72.7,57.1,29.92,SW,219,3.0,3.0,58,0.00,,,0.00,Wunderground v.1.15,2013-06-10 18:22:00,
2013-06-10 11:32:00,73.4,57.2,29.92,South,169,2.0,6.0,57,0.00,,,0.00,Wunderground v.1.15,2013-06-10 18:32:00,
2013-06-10 11:37:00,73.9,57.2,29.92,SW,214,4.0,6.0,56,0.00,,,0.00,Wunderground v.1.15,2013-06-10 18:37:00,
2013-06-10 11:47:00,74.0,56.8,29.92,SE,146,3.0,4.0,55,0.00,,,0.00,Wunderground v.1.15,2013-06-10 18:47:00,
2013-06-10 11:52:00,74.1,57.4,29.92,SSE,155,2.0,3.0,56,0.00,,,0.00,Wunderground v.1.15,2013-06-10 18:52:00,
2013-06-10 11:57:00,74.4,57.2,29.92,WSW,237,3.0,5.0,55,0.00,,,0.00,Wunderground v.1.15,2013-06-10 18:57:00,
2013-06-10 12:07:00,74.0,56.8,29.92,SSW,197,5.0,6.0,55,0.00,,,0.00,Wunderground v.1.15,2013-06-10 19:07:00,
2013-06-10 12:17:00,75.2,57.4,29.92,SSE,158,3.0,5.0,54,0.00,,,0.00,Wunderground v.1.15,2013-06-10 19:17:00,
2013-06-10 12:27:00,75.2,57.9,29.91,WNW,300,4.0,4.0,55,0.00,,,0.00,Wunderground v.1.15,2013-06-10 19:27:00,
2013-06-10 12:37:00,75.5,58.2,29.91,SSW,203,4.0,7.0,55,0.00,,,0.00,Wunderground v.1.15,2013-06-10 19:37:00,
2013-06-10 12:42:00,74.8,58.1,29.91,SSW,196,6.0,6.0,56,0.00,,,0.00,Wunderground v.1.15,2013-06-10 19:42:00,
2013-06-10 12:52:00,76.2,58.3,29.91,NNE,33,3.0,3.0,54,0.00,,,0.00,Wunderground v.1.15,2013-06-10 19:52:00,
2013-06-10 13:02:00,76.9,58.5,29.90,SW,221,2.0,3.0,53,0.00,,,0.00,Wunderground v.1.15,2013-06-10 20:02:00,
2013-06-10 13:07:00,76.6,58.2,29.90,WSW,240,4.0,7.0,53,0.00,,,0.00,Wunderground v.1.15,2013-06-10 20:07:00,
2013-06-10 13:17:00,76.6,58.2,29.90,SE,128,4.0,5.0,53,0.00,,,0.00,Wunderground v.1.15,2013-06-10 20:17:00,
2013-06-10 13:22:00,77.1,58.1,29.90,West,263,3.0,4.0,52,0.00,,,0.00,Wunderground v.1.15,2013-06-10 20:22:00,
2013-06-10 13:27:00,77.5,58.5,29.89,SW,224,3.0,4.0,52,0.00,,,0.00,Wunderground v.1.15,2013-06-10 20:27:00,
2013-06-10 13:37:00,77.8,58.2,29.89,ESE,105,5.0,5.0,51,0.00,,,0.00,Wunderground v.1.15,2013-06-10 20:37:00,
2013-06-10 13:42:00,77.8,59.3,29.89,SW,228,5.0,7.0,53,0.00,,,0.00,Wunderground v.1.15,2013-06-10 20:42:00,
2013-06-10 13:47:00,78.0,58.9,29.89,WSW,244,5.0,7.0,52,0.00,,,0.00,Wunderground v.1.15,2013-06-10 20:47:00,
2013-06-10 13:57:00,78.6,59.0,29.89,SW,234,4.0,8.0,51,0.00,,,0.00,Wunderground v.1.15,2013-06-10 20:57:00,
2013-06-10 14:02:00,78.4,59.3,29.89,SW,219,5.0,10.0,52,0.00,,,0.00,Wunderground v.1.15,2013-06-10 21:02:00,
2013-06-10 14:12:00,77.8,59.3,29.89,SSW,206,8.0,8.0,53,0.00,,,0.00,Wunderground v.1.15,2013-06-10 21:12:00,
2013-06-10 14:17:00,78.2,59.1,29.89,SSW,200,6.0,8.0,52,0.00,,,0.00,Wunderground v.1.15,2013-06-10 21:17:00,
2013-06-10 14:22:00,77.8,59.3,29.89,SW,228,6.0,9.0,53,0.00,,,0.00,Wunderground v.1.15,2013-06-10 21:22:00,
2013-06-10 14:27:00,77.8,58.8,29.89,SSW,211,6.0,9.0,52,0.00,,,0.00,Wunderground v.1.15,2013-06-10 21:27:00,
2013-06-10 14:37:00,78.2,59.7,29.88,WNW,284,5.0,6.0,53,0.00,,,0.00,Wunderground v.1.15,2013-06-10 21:37:00,
2013-06-10 14:47:00,78.8,59.1,29.88,WNW,288,6.0,12.0,51,0.00,,,0.00,Wunderground v.1.15,2013-06-10 21:47:00,
2013-06-10 14:57:00,79.1,59.4,29.88,West,261,6.0,12.0,51,0.00,,,0.00,Wunderground v.1.15,2013-06-10 21:57:00,
2013-06-10 15:07:00,78.1,58.5,29.88,SW,235,6.0,7.0,51,0.00,,,0.00,Wunderground v.1.15,2013-06-10 22:07:00,
2013-06-10 15:12:00,77.5,58.5,29.88,West,272,7.0,7.0,52,0.00,,,0.00,Wunderground v.1.15,2013-06-10 22:12:00,
2013-06-10 15:22:00,78.1,57.9,29.88,WSW,238,6.0,8.0,50,0.00,,,0.00,Wunderground v.1.15,2013-06-10 22:22:00,
2013-06-10 15:27:00,77.8,57.7,29.88,WSW,248,6.0,8.0,50,0.00,,,0.00,Wunderground v.1.15,2013-06-10 22:27:00,
2013-06-10 15:37:00,78.7,58.5,29.88,WSW,238,5.0,6.0,50,0.00,,,0.00,Wunderground v.1.15,2013-06-10 22:37:00,
2013-06-10 15:42:00,78.5,57.7,29.88,SSW,196,5.0,5.0,49,0.00,,,0.00,Wunderground v.1.15,2013-06-10 22:42:00,
2013-06-10 15:47:00,78.5,58.3,29.88,WSW,251,5.0,5.0,50,0.00,,,0.00,Wunderground v.1.15,2013-06-10 22:47:00,
2013-06-10 15:57:00,78.9,58.1,29.87,West,277,4.0,4.0,49,0.00,,,0.00,Wunderground v.1.15,2013-06-10 22:57:00,
2013-06-10 16:07:00,78.9,57.5,29.87,SW,236,4.0,6.0,48,0.00,,,0.00,Wunderground v.1.15,2013-06-10 23:07:00,
2013-06-10 16:12:00,78.6,57.8,29.87,SW,215,5.0,5.0,49,0.00,,,0.00,Wunderground v.1.15,2013-06-10 23:12:00,
2013-06-10 16:22:00,78.2,57.5,29.87,WNW,291,5.0,5.0,49,0.00,,,0.00,Wunderground v.1.15,2013-06-10 23:22:00,
2013-06-10 16:27:00,78.2,57.5,29.87,WSW,238,5.0,7.0,49,0.00,,,0.00,Wunderground v.1.15,2013-06-10 23:27:00,
2013-06-10 16:37:00,78.5,57.7,29.87,WSW,240,5.0,7.0,49,0.00,,,0.00,Wunderground v.1.15,2013-06-10 23:37:00,
2013-06-10 16:42:00,78.4,57.7,29.87,SW,220,5.0,5.0,49,0.00,,,0.00,Wunderground v.1.15,2013-06-10 23:42:00,
2013-06-10 16:47:00,78.0,57.9,29.87,WSW,248,5.0,5.0,50,0.00,,,0.00,Wunderground v.1.15,2013-06-10 23:47:00,
2013-06-10 16:52:00,78.4,57.7,29.87,SSW,209,4.0,5.0,49,0.00,,,0.00,Wunderground v.1.15,2013-06-10 23:52:00,
2013-06-10 16:57:00,78.1,57.4,29.87,SW,236,5.0,5.0,49,0.00,,,0.00,Wunderground v.1.15,2013-06-10 23:57:00,
2013-06-10 17:02:00,78.1,57.9,29.87,WSW,242,6.0,6.0,50,0.00,,,0.00,Wunderground v.1.15,2013-06-11 00:02:00,
2013-06-10 17:12:00,77.3,57.8,29.87,SW,232,5.0,6.0,51,0.00,,,0.00,Wunderground v.1.15,2013-06-11 00:12:00,
2013-06-10 17:22:00,77.3,57.8,29.87,WSW,254,6.0,6.0,51,0.00,,,0.00,Wunderground v.1.15,2013-06-11 00:22:00,
2013-06-10 17:32:00,77.1,57.6,29.87,WSW,244,4.0,4.0,51,0.00,,,0.00,Wunderground v.1.15,2013-06-11 00:32:00,
2013-06-10 17:37:00,77.4,57.9,29.87,WSW,250,4.0,4.0,51,0.00,,,0.00,Wunderground v.1.15,2013-06-11 00:37:00,
2013-06-10 17:47:00,77.0,58.0,29.87,WSW,244,4.0,5.0,52,0.00,,,0.00,Wunderground v.1.15,2013-06-11 00:47:00,
2013-06-10 17:52:00,76.5,58.1,29.86,WSW,240,5.0,5.0,53,0.00,,,0.00,Wunderground v.1.15,2013-06-11 00:52:00,
2013-06-10 18:02:00,76.1,58.2,29.87,WSW,241,4.0,4.0,54,0.00,,,0.00,Wunderground v.1.15,2013-06-11 01:02:00,
2013-06-10 18:07:00,75.7,58.4,29.87,WNW,283,4.0,4.0,55,0.00,,,0.00,Wunderground v.1.15,2013-06-11 01:07:00,
2013-06-10 18:12:00,75.2,58.4,29.87,SW,221,4.0,4.0,56,0.00,,,0.00,Wunderground v.1.15,2013-06-11 01:12:00,
2013-06-10 18:17:00,75.0,58.2,29.87,WNW,283,4.0,4.0,56,0.00,,,0.00,Wunderground v.1.15,2013-06-11 01:17:00,
2013-06-10 18:22:00,74.5,58.8,29.86,WSW,241,4.0,4.0,58,0.00,,,0.00,Wunderground v.1.15,2013-06-11 01:22:00,
2013-06-10 18:32:00,73.7,58.5,29.87,WNW,296,5.0,5.0,59,0.00,,,0.00,Wunderground v.1.15,2013-06-11 01:32:00,
2013-06-10 18:42:00,73.1,57.9,29.87,West,262,5.0,5.0,59,0.00,,,0.00,Wunderground v.1.15,2013-06-11 01:42:00,
2013-06-10 18:47:00,73.1,58.4,29.87,West,272,4.0,5.0,60,0.00,,,0.00,Wunderground v.1.15,2013-06-11 01:47:00,
2013-06-10 18:52:00,73.0,58.3,29.87,West,265,4.0,4.0,60,0.00,,,0.00,Wunderground v.1.15,2013-06-11 01:52:00,
2013-06-10 19:02:00,72.4,58.2,29.87,WSW,238,4.0,6.0,61,0.00,,,0.00,Wunderground v.1.15,2013-06-11 02:02:00,
2013-06-10 19:12:00,72.0,58.3,29.87,SW,234,4.0,4.0,62,0.00,,,0.00,Wunderground v.1.15,2013-06-11 02:12:00,
2013-06-10 19:17:00,71.6,58.3,29.88,WSW,256,4.0,5.0,63,0.00,,,0.00,Wunderground v.1.15,2013-06-11 02:17:00,
2013-06-10 19:27:00,71.0,58.2,29.88,West,279,3.0,6.0,64,0.00,,,0.00,Wunderground v.1.15,2013-06-11 02:27:00,
2013-06-10 19:32:00,70.7,58.4,29.87,WNW,292,3.0,3.0,65,0.00,,,0.00,Wunderground v.1.15,2013-06-11 02:32:00,
2013-06-10 19:42:00,69.7,58.3,29.87,West,279,4.0,4.0,67,0.00,,,0.00,Wunderground v.1.15,2013-06-11 02:42:00,
2013-06-10 19:52:00,69.3,58.3,29.87,SW,229,3.0,5.0,68,0.00,,,0.00,Wunderground v.1.15,2013-06-11 02:52:00,
2013-06-10 19:57:00,69.1,58.1,29.87,West,260,3.0,5.0,68,0.00,,,0.00,Wunderground v.1.15,2013-06-11 02:57:00,
2013-06-10 20:07:00,68.5,57.5,29.87,West,279,3.0,3.0,68,0.00,,,0.00,Wunderground v.1.15,2013-06-11 03:07:00,
2013-06-10 20:12:00,68.3,57.7,29.87,WSW,238,3.0,3.0,69,0.00,,,0.00,Wunderground v.1.15,2013-06-11 03:12:00,
2013-06-10 20:22:00,68.0,57.8,29.87,WNW,291,2.0,2.0,70,0.00,,,0.00,Wunderground v.1.15,2013-06-11 03:22:00,
2013-06-10 20:27:00,67.7,58.0,29.87,WNW,292,2.0,3.0,71,0.00,,,0.00,Wunderground v.1.15,2013-06-11 03:27:00,
2013-06-10 20:37:00,67.4,58.1,29.87,West,275,3.0,3.0,72,0.00,,,0.00,Wunderground v.1.15,2013-06-11 03:37:00,
2013-06-10 20:47:00,67.1,58.2,29.88,NW,304,2.0,4.0,73,0.00,,,0.00,Wunderground v.1.15,2013-06-11 03:47:00,
2013-06-10 20:52:00,66.9,58.0,29.88,WNW,292,3.0,3.0,73,0.00,,,0.00,Wunderground v.1.15,2013-06-11 03:52:00,
2013-06-10 20:57:00,66.8,57.9,29.88,WNW,285,3.0,3.0,73,0.00,,,0.00,Wunderground v.1.15,2013-06-11 03:57:00,
2013-06-10 21:02:00,66.7,58.1,29.89,SW,228,2.0,2.0,74,0.00,,,0.00,Wunderground v.1.15,2013-06-11 04:02:00,
2013-06-10 21:07:00,66.7,58.1,29.89,WNW,299,2.0,2.0,74,0.00,,,0.00,Wunderground v.1.15,2013-06-11 04:07:00,
2013-06-10 21:12:00,66.4,58.2,29.89,West,269,2.0,2.0,75,0.00,,,0.00,Wunderground v.1.15,2013-06-11 04:12:00,
2013-06-10 21:22:00,66.2,58.0,29.89,WSW,244,2.0,2.0,75,0.00,,,0.00,Wunderground v.1.15,2013-06-11 04:22:00,
2013-06-10 21:32:00,66.1,58.3,29.89,WNW,284,1.0,1.0,76,0.00,,,0.00,Wunderground v.1.15,2013-06-11 04:32:00,
2013-06-10 21:37:00,66.0,58.2,29.89,SW,226,2.0,2.0,76,0.00,,,0.00,Wunderground v.1.15,2013-06-11 04:37:00,
2013-06-10 21:42:00,66.1,58.3,29.89,SW,222,2.0,2.0,76,0.00,,,0.00,Wunderground v.1.15,2013-06-11 04:42:00,
2013-06-10 21:47:00,66.1,58.3,29.89,WSW,240,2.0,2.0,76,0.00,,,0.00,Wunderground v.1.15,2013-06-11 04:47:00,
2013-06-10 21:52:00,66.0,58.2,29.90,SW,224,2.0,2.0,76,0.00,,,0.00,Wunderground v.1.15,2013-06-11 04:52:00,
2013-06-10 21:57:00,65.9,58.1,29.90,SW,231,2.0,2.0,76,0.00,,,0.00,Wunderground v.1.15,2013-06-11 04:57:00,
2013-06-10 22:07:00,65.6,58.2,29.90,SW,234,1.0,2.0,77,0.00,,,0.00,Wunderground v.1.15,2013-06-11 05:07:00,
2013-06-10 22:12:00,65.4,58.4,29.91,WNW,292,1.0,2.0,78,0.00,,,0.00,Wunderground v.1.15,2013-06-11 05:12:00,
2013-06-10 22:22:00,65.2,58.2,29.91,West,263,1.0,3.0,78,0.00,,,0.00,Wunderground v.1.15,2013-06-11 05:22:00,
2013-06-10 22:27:00,65.0,58.3,29.91,West,275,2.0,3.0,79,0.00,,,0.00,Wunderground v.1.15,2013-06-11 05:27:00,
2013-06-10 22:37:00,64.9,58.6,29.91,WNW,294,2.0,2.0,80,0.00,,,0.00,Wunderground v.1.15,2013-06-11 05:37:00,
2013-06-10 22:42:00,64.8,58.5,29.91,WSW,240,2.0,2.0,80,0.00,,,0.00,Wunderground v.1.15,2013-06-11 05:42:00,
2013-06-10 22:52:00,64.8,58.8,29.91,NW,306,2.0,3.0,81,0.00,,,0.00,Wunderground v.1.15,2013-06-11 05:52:00,
2013-06-10 22:57:00,64.6,58.6,29.91,WNW,288,2.0,3.0,81,0.00,,,0.00,Wunderground v.1.15,2013-06-11 05:57:00,
2013-06-10 23:07:00,64.4,58.4,29.91,WNW,283,3.0,4.0,81,0.00,,,0.00,Wunderground v.1.15,2013-06-11 06:07:00,
2013-06-10 23:12:00,64.4,58.8,29.91,West,274,2.0,3.0,82,0.00,,,0.00,Wunderground v.1.15,2013-06-11 06:12:00,
2013-06-10 23:22:00,64.3,58.7,29.91,WNW,285,2.0,2.0,82,0.00,,,0.00,Wunderground v.1.15,2013-06-11 06:22:00,
2013-06-10 23:32:00,64.2,58.6,29.91,West,273,1.0,1.0,82,0.00,,,0.00,Wunderground v.1.15,2013-06-11 06:32:00,
2013-06-10 23:37:00,64.1,58.8,29.91,NNW,327,1.0,1.0,83,0.00,,,0.00,Wunderground v.1.15,2013-06-11 06:37:00,
2013-06-10 23:47:00,63.9,58.6,29.91,NW,317,1.0,1.0,83,0.00,,,0.00,Wunderground v.1.15,2013-06-11 06:47:00,
2013-06-10 23:52:00,63.8,58.9,29.91,NW,317,1.0,2.0,84,0.00,,,0.00,Wunderground v.1.15,2013-06-11 06:52:00,
2013-06-10 23:57:00,63.8,58.9,29.91,NW,314,2.0,2.0,84,0.00,,,0.00,Wunderground v.1.15,2013-06-11 06:57:00,